CZ-6A DEB

Satellite information

Favourite Embed

Satellite Type and Status

DEBRISIN ORBIT

Key statistics

Satellite CZ-6A DEB at a glance.

Uptime

439

Days in orbit

Revolutions

≈ 14.5

Per day

Orbit

LEO

Low Earth Orbit

Inclination

89.0

Latest

Satellite identification and parameters

Extended collection of information and parameters for CZ-6A DEB.

Object identification

Identified? True

Debris? True

Object name: CZ-6A DEB

International designator: 2024-140ADJ

Object number (NORAD): 61842

Object ID (CCSDS): 61842

Country: PEOPLES REPUBLIC OF CHINA (PRC)

Current information (Y/N): Y

RCS size: SMALL

Orbital parameters

Period: 98.974 minutes

Inclination: 89.0184 deg

SMA: 7087.735 km

Apoapsis: 785.819 km

Periapsis: 633.382 km

RAAN: 300.4181 deg

Eccentricy: 0.0107536

Argument of periapsis: 20.2003 deg

Mean anomaly: 340.3412 deg

Mean motion: 14.54928099 rev/day

Mean motion (dot): 0.00005861 rev/day2

B* drag term: 0.0012578303 1/REarth

Two-line elements (TLE)

Creation date: Oct. 19, 2025, 2:20 a.m.

Reference frame: TEME

Reference center: EARTH

Epoch: Oct. 18, 2025, 11:41 a.m. UTC

TLE line 0: 0 CZ-6A DEB

TLE line 1: 1 61842U 24140ADJ 25291.48685369 .00005861 00000-0 12578-2 0 9995

TLE line 2: 2 61842 89.0184 300.4181 0107536 20.2003 340.3412 14.54928099 61420

Live tracking on map

Real-time ground track for satellite CZ-6A DEB.

In-orbit conjunctions

A list of the most updated potential collisions computed for object CZ-6A DEB.

Target Orbit TCA Probability of collision Miss distance Type
COSMOS 1741 LEO 2025-03-27 17:56:43 0.0003752113 693.0 (m) PAYLOAD
DMSP 5D-2 F13 DEB SSO 2024-12-19 02:23:15 0.0003289622 406.0 (m) DEBRIS
CZ-6A DEB LEO 2024-11-15 00:23:18 0.001427099 173.0 (m) DEBRIS

Associated space launch

18 Low Earth Orbit communication satellites with Ku, Q and V band payloads for the G60 constellation operated by Shanghai Spacecom Satellite Technology (SSST) with funding backed by the Shanghai local government. Initial constellation will consist of 1296 satellites by 2027 with long term plans to expand it to 12000 satellites.

CZ-6A DEB was lifted into orbit during the mission ‘Long March 6A | G60 Polar Group 01’, on board a Long March 6A space rocket.

The launch took place on Aug. 6, 2024, 6:42 a.m. from Launch Complex 9A.

For more information about the launch, click the button.

Launch to space Long March 6A | G60 Polar Group 01
Long March 6A | G60 Polar Group 01

Agency: N/A

Status: Launch Successful

Launch date: Aug. 6, 2024, 6:42 a.m. UTC

Rocket: Long March 6A

Launch pad: Launch Complex 9A

Location: Taiyuan Satellite Launch Center, People's Republic of China

...

Latest news about this satellite

News about space launch
Brightness of first Chinese broadband constellation satellites alarms astronomers

The first satellites of a Chinese broadband constellation are significantly brighter than those of Western systems, posing a new challenge for astronomers.

News about space launch
Chinese rocket stage breaks up into cloud of more than 700 pieces of space debris

HELSINKI — A Chinese Long March 6A rocket’s upper stage has fragmented into a cloud of over 700 pieces of space debris, adding to concerns about long-term orbital safety. China […]

News about space launch
China's Thousand Sails Megaconstellation Kicks Off with Dangerous Debris Field

China's Thousand Sails Megaconstellation Kicks Off with Dangerous Debris Field


Newsletter sign-up

Weekly statistics, charts and insights to help you stay on top of the space industry.